Year,Month,Day,Hour,Minute,Value (Times are PST for temperature in C)
2009,07,05,00,00,19.90
2009,07,05,00,01,19.90
2009,07,05,00,02,20.00
2009,07,05,00,03,20.00
2009,07,05,00,04,19.90
2009,07,05,00,05,19.90
2009,07,05,00,06,19.80
2009,07,05,00,07,19.80
2009,07,05,00,08,19.70
2009,07,05,00,09,19.70
2009,07,05,00,10,19.60
2009,07,05,00,11,19.60
2009,07,05,00,12,19.50
2009,07,05,00,13,19.50
2009,07,05,00,14,19.50
2009,07,05,00,15,19.40
2009,07,05,00,16,19.40
2009,07,05,00,17,19.40
2009,07,05,00,18,19.30
2009,07,05,00,19,19.20
2009,07,05,00,20,19.20
2009,07,05,00,21,19.10
2009,07,05,00,22,19.00
2009,07,05,00,23,18.90
2009,07,05,00,24,18.90
2009,07,05,00,25,18.80
2009,07,05,00,26,18.80
2009,07,05,00,27,18.80
2009,07,05,00,28,18.80
2009,07,05,00,29,18.80
2009,07,05,00,30,18.80
2009,07,05,00,31,18.80
2009,07,05,00,32,18.80
2009,07,05,00,33,18.80
2009,07,05,00,34,18.80
2009,07,05,00,35,18.80
2009,07,05,00,36,18.80
2009,07,05,00,37,18.80
2009,07,05,00,38,18.80
2009,07,05,00,39,18.80
2009,07,05,00,40,18.80
2009,07,05,00,41,18.80
2009,07,05,00,42,18.80
2009,07,05,00,43,18.80
2009,07,05,00,44,18.70
2009,07,05,00,45,18.70
2009,07,05,00,46,18.60
2009,07,05,00,47,18.60
2009,07,05,00,48,18.50
2009,07,05,00,49,18.50
2009,07,05,00,50,18.40
2009,07,05,00,51,18.40
2009,07,05,00,52,18.30
2009,07,05,00,53,18.30
2009,07,05,00,54,18.20
2009,07,05,00,55,18.20
2009,07,05,00,56,18.20
2009,07,05,00,57,18.20
2009,07,05,00,58,18.20
2009,07,05,00,59,18.20
2009,07,05,01,00,18.20
2009,07,05,01,01,18.20
2009,07,05,01,02,18.10
2009,07,05,01,03,18.10
2009,07,05,01,04,18.10
2009,07,05,01,05,18.00
2009,07,05,01,06,18.00
2009,07,05,01,07,17.90
2009,07,05,01,08,17.90
2009,07,05,01,09,17.90
2009,07,05,01,10,17.90
2009,07,05,01,11,17.80
2009,07,05,01,12,17.80
2009,07,05,01,13,17.80
2009,07,05,01,14,17.80
2009,07,05,01,15,17.80
2009,07,05,01,16,17.80
2009,07,05,01,17,17.80
2009,07,05,01,18,17.80
2009,07,05,01,19,17.80
2009,07,05,01,20,17.80
2009,07,05,01,21,17.80
2009,07,05,01,22,17.80
2009,07,05,01,23,17.80
2009,07,05,01,24,17.90
2009,07,05,01,25,17.90
2009,07,05,01,26,18.00
2009,07,05,01,27,18.00
2009,07,05,01,28,18.10
2009,07,05,01,29,18.10
2009,07,05,01,30,18.20
2009,07,05,01,31,18.20
2009,07,05,01,32,18.20
2009,07,05,01,33,18.30
2009,07,05,01,34,18.30
2009,07,05,01,35,18.30
2009,07,05,01,36,18.40
2009,07,05,01,37,18.30
2009,07,05,01,38,18.30
2009,07,05,01,39,18.30
2009,07,05,01,40,18.30
2009,07,05,01,41,18.30
2009,07,05,01,42,18.30
2009,07,05,01,43,18.30
2009,07,05,01,44,18.30
2009,07,05,01,45,18.30
2009,07,05,01,46,18.20
2009,07,05,01,47,18.20
2009,07,05,01,48,18.20
2009,07,05,01,49,18.20
2009,07,05,01,50,18.10
2009,07,05,01,51,18.10
2009,07,05,01,52,18.10
2009,07,05,01,53,18.10
2009,07,05,01,54,18.10
2009,07,05,01,55,18.10
2009,07,05,01,56,18.10
2009,07,05,01,57,18.10
2009,07,05,01,58,18.10
2009,07,05,01,59,18.00
2009,07,05,02,00,17.90
2009,07,05,02,01,17.90
2009,07,05,02,02,17.80
2009,07,05,02,03,17.80
2009,07,05,02,04,17.70
2009,07,05,02,05,17.70
2009,07,05,02,06,17.60
2009,07,05,02,07,17.60
2009,07,05,02,08,17.60
2009,07,05,02,09,17.50
2009,07,05,02,10,17.50
2009,07,05,02,11,17.40
2009,07,05,02,12,17.40
2009,07,05,02,13,17.40
2009,07,05,02,14,17.30
2009,07,05,02,15,17.30
2009,07,05,02,16,17.30
2009,07,05,02,17,17.20
2009,07,05,02,18,17.20
2009,07,05,02,19,17.20
2009,07,05,02,20,17.20
2009,07,05,02,21,17.20
2009,07,05,02,22,17.20
2009,07,05,02,23,17.10
2009,07,05,02,24,17.10
2009,07,05,02,25,17.10
2009,07,05,02,26,17.10
2009,07,05,02,27,17.10
2009,07,05,02,28,17.00
2009,07,05,02,29,17.00
2009,07,05,02,30,17.00
2009,07,05,02,31,17.00
2009,07,05,02,32,17.00
2009,07,05,02,33,16.90
2009,07,05,02,34,16.90
2009,07,05,02,35,16.90
2009,07,05,02,36,16.80
2009,07,05,02,37,16.80
2009,07,05,02,38,16.80
2009,07,05,02,39,16.80
2009,07,05,02,40,16.70
2009,07,05,02,41,16.70
2009,07,05,02,42,16.70
2009,07,05,02,43,16.70
2009,07,05,02,44,16.70
2009,07,05,02,45,16.60
2009,07,05,02,46,16.60
2009,07,05,02,47,16.60
2009,07,05,02,48,16.60
2009,07,05,02,49,16.60
2009,07,05,02,50,16.60
2009,07,05,02,51,16.60
2009,07,05,02,52,16.60
2009,07,05,02,53,16.70
2009,07,05,02,54,16.70
2009,07,05,02,55,16.70
2009,07,05,02,56,16.70
2009,07,05,02,57,16.70
2009,07,05,02,58,16.70
2009,07,05,02,59,16.70
2009,07,05,03,00,16.70
2009,07,05,03,01,16.70
2009,07,05,03,02,16.80
2009,07,05,03,03,16.80
2009,07,05,03,04,16.90
2009,07,05,03,05,17.00
2009,07,05,03,06,17.00
2009,07,05,03,07,17.10
2009,07,05,03,08,17.20
2009,07,05,03,09,17.20
2009,07,05,03,10,17.30
2009,07,05,03,11,17.30
2009,07,05,03,12,17.30
2009,07,05,03,13,17.40
2009,07,05,03,14,17.40
2009,07,05,03,15,17.40
2009,07,05,03,16,17.40
2009,07,05,03,17,17.40
2009,07,05,03,18,17.40
2009,07,05,03,19,17.40
2009,07,05,03,20,17.50
2009,07,05,03,21,17.50
2009,07,05,03,22,17.50
2009,07,05,03,23,17.50
2009,07,05,03,24,17.50
2009,07,05,03,25,17.40
2009,07,05,03,26,17.30
2009,07,05,03,27,17.30
2009,07,05,03,28,17.20
2009,07,05,03,29,17.10
2009,07,05,03,30,17.00
2009,07,05,03,31,16.90
2009,07,05,03,32,16.80
2009,07,05,03,33,16.80
2009,07,05,03,34,16.80
2009,07,05,03,35,16.70
2009,07,05,03,36,16.70
2009,07,05,03,37,16.70
2009,07,05,03,38,16.70
2009,07,05,03,39,16.70
2009,07,05,03,40,16.70
2009,07,05,03,41,16.80
2009,07,05,03,42,16.80
2009,07,05,03,43,16.80
2009,07,05,03,44,16.80
2009,07,05,03,45,16.80
2009,07,05,03,46,16.80
2009,07,05,03,47,16.80
2009,07,05,03,48,16.80
2009,07,05,03,49,16.90
2009,07,05,03,50,16.90
2009,07,05,03,51,17.00
2009,07,05,03,52,17.00
2009,07,05,03,53,17.10
2009,07,05,03,54,17.10
2009,07,05,03,55,17.10
2009,07,05,03,56,17.10
2009,07,05,03,57,17.10
2009,07,05,03,58,17.10
2009,07,05,03,59,17.10
2009,07,05,04,00,17.00
2009,07,05,04,01,17.00
2009,07,05,04,02,17.00
2009,07,05,04,03,17.00
2009,07,05,04,04,17.00
2009,07,05,04,05,17.00
2009,07,05,04,06,17.00
2009,07,05,04,07,17.00
2009,07,05,04,08,16.90
2009,07,05,04,09,16.80
2009,07,05,04,10,16.80
2009,07,05,04,11,16.70
2009,07,05,04,12,16.60
2009,07,05,04,13,16.60
2009,07,05,04,14,16.50
2009,07,05,04,15,16.50
2009,07,05,04,16,16.50
2009,07,05,04,17,16.60
2009,07,05,04,18,16.60
2009,07,05,04,19,16.60
2009,07,05,04,20,16.60
2009,07,05,04,21,16.60
2009,07,05,04,22,16.60
2009,07,05,04,23,16.60
2009,07,05,04,24,16.60
2009,07,05,04,25,16.70
2009,07,05,04,26,16.70
2009,07,05,04,27,16.70
2009,07,05,04,28,16.80
2009,07,05,04,29,16.80
2009,07,05,04,30,16.80
2009,07,05,04,31,16.90
2009,07,05,04,32,16.90
2009,07,05,04,33,16.80
2009,07,05,04,34,16.90
2009,07,05,04,35,16.90
2009,07,05,04,36,17.00
2009,07,05,04,37,17.10
2009,07,05,04,38,17.10
2009,07,05,04,39,17.10
2009,07,05,04,40,17.10
2009,07,05,04,41,17.10
2009,07,05,04,42,17.10
2009,07,05,04,43,17.10
2009,07,05,04,44,17.10
2009,07,05,04,45,17.10
2009,07,05,04,46,17.10
2009,07,05,04,47,17.20
2009,07,05,04,48,17.30
2009,07,05,04,49,17.30
2009,07,05,04,50,17.30
2009,07,05,04,51,17.30
2009,07,05,04,52,17.30
2009,07,05,04,53,17.30
2009,07,05,04,54,17.40
2009,07,05,04,55,17.40
2009,07,05,04,56,17.40
2009,07,05,04,57,17.50
2009,07,05,04,58,17.50
2009,07,05,04,59,17.60
2009,07,05,05,00,17.60
2009,07,05,05,01,17.50
2009,07,05,05,02,17.50
2009,07,05,05,03,17.40
2009,07,05,05,04,17.40
2009,07,05,05,05,17.30
2009,07,05,05,06,17.30
2009,07,05,05,07,17.30
2009,07,05,05,08,17.30
2009,07,05,05,09,17.30
2009,07,05,05,10,17.30
2009,07,05,05,11,17.30
2009,07,05,05,12,17.20
2009,07,05,05,13,17.20
2009,07,05,05,14,17.10
2009,07,05,05,15,17.00
2009,07,05,05,16,17.00
2009,07,05,05,17,16.90
2009,07,05,05,18,16.90
2009,07,05,05,19,16.90
2009,07,05,05,20,16.80
2009,07,05,05,21,16.80
2009,07,05,05,22,16.80
2009,07,05,05,23,16.70
2009,07,05,05,24,16.70
2009,07,05,05,25,16.70
2009,07,05,05,26,16.70
2009,07,05,05,27,16.70
2009,07,05,05,28,16.70
2009,07,05,05,29,16.60
2009,07,05,05,30,16.70
2009,07,05,05,31,16.70
2009,07,05,05,32,16.60
2009,07,05,05,33,16.60
2009,07,05,05,34,16.60
2009,07,05,05,35,16.50
2009,07,05,05,36,16.50
2009,07,05,05,37,16.50
2009,07,05,05,38,16.60
2009,07,05,05,39,16.60
2009,07,05,05,40,16.60
2009,07,05,05,41,16.70
2009,07,05,05,42,16.70
2009,07,05,05,43,16.70
2009,07,05,05,44,16.70
2009,07,05,05,45,16.70
2009,07,05,05,46,16.70
2009,07,05,05,47,16.70
2009,07,05,05,48,16.70
2009,07,05,05,49,16.70
2009,07,05,05,50,16.70
2009,07,05,05,51,16.70
2009,07,05,05,52,16.80
2009,07,05,05,53,16.80
2009,07,05,05,54,16.90
2009,07,05,05,55,16.90
2009,07,05,05,56,17.00
2009,07,05,05,57,17.10
2009,07,05,05,58,17.10
2009,07,05,05,59,17.20
2009,07,05,06,00,17.20
2009,07,05,06,01,17.30
2009,07,05,06,02,17.30
2009,07,05,06,03,17.40
2009,07,05,06,04,17.40
2009,07,05,06,05,17.50
2009,07,05,06,06,17.50
2009,07,05,06,07,17.60
2009,07,05,06,08,17.70
2009,07,05,06,09,17.70
2009,07,05,06,10,17.80
2009,07,05,06,11,17.80
2009,07,05,06,12,17.90
2009,07,05,06,13,17.90
2009,07,05,06,14,17.90
2009,07,05,06,15,17.90
2009,07,05,06,16,17.90
2009,07,05,06,17,17.90
2009,07,05,06,18,17.90
2009,07,05,06,19,17.90
2009,07,05,06,20,17.90
2009,07,05,06,21,17.90
2009,07,05,06,22,17.90
2009,07,05,06,23,17.90
2009,07,05,06,24,17.90
2009,07,05,06,25,17.90
2009,07,05,06,26,17.90
2009,07,05,06,27,18.00
2009,07,05,06,28,18.00
2009,07,05,06,29,18.00
2009,07,05,06,30,18.10
2009,07,05,06,31,18.10
2009,07,05,06,32,18.10
2009,07,05,06,33,18.10
2009,07,05,06,34,18.10
2009,07,05,06,35,18.10
2009,07,05,06,36,18.10
2009,07,05,06,37,18.10
2009,07,05,06,38,18.10
2009,07,05,06,39,18.10
2009,07,05,06,40,18.10
2009,07,05,06,41,18.10
2009,07,05,06,42,18.10
2009,07,05,06,43,18.10
2009,07,05,06,44,18.10
2009,07,05,06,45,18.20
2009,07,05,06,46,18.20
2009,07,05,06,47,18.20
2009,07,05,06,48,18.20
2009,07,05,06,49,18.20
2009,07,05,06,50,18.20
2009,07,05,06,51,18.20
2009,07,05,06,52,18.20
2009,07,05,06,53,18.20
2009,07,05,06,54,18.30
2009,07,05,06,55,18.30
2009,07,05,06,56,18.30
2009,07,05,06,57,18.30
2009,07,05,06,58,18.30
2009,07,05,06,59,18.40
2009,07,05,07,00,18.40
2009,07,05,07,01,18.40
2009,07,05,07,02,18.50
2009,07,05,07,03,18.50
2009,07,05,07,04,18.50
2009,07,05,07,05,18.60
2009,07,05,07,06,18.60
2009,07,05,07,07,18.60
2009,07,05,07,08,18.70
2009,07,05,07,09,18.70
2009,07,05,07,10,18.70
2009,07,05,07,11,18.70
2009,07,05,07,12,18.60
2009,07,05,07,13,18.60
2009,07,05,07,14,18.60
2009,07,05,07,15,18.60
2009,07,05,07,16,18.60
2009,07,05,07,17,18.50
2009,07,05,07,18,18.50
2009,07,05,07,19,18.50
2009,07,05,07,20,18.50
2009,07,05,07,21,18.60
2009,07,05,07,22,18.60
2009,07,05,07,23,18.60
2009,07,05,07,24,18.60
2009,07,05,07,25,18.60
2009,07,05,07,26,18.60
2009,07,05,07,27,18.70
2009,07,05,07,28,18.70
2009,07,05,07,29,18.70
2009,07,05,07,30,18.70
2009,07,05,07,31,18.70
2009,07,05,07,32,18.70
2009,07,05,07,33,18.70
2009,07,05,07,34,18.70
2009,07,05,07,35,18.70
2009,07,05,07,36,18.80
2009,07,05,07,37,18.80
2009,07,05,07,38,18.80
2009,07,05,07,39,18.80
2009,07,05,07,40,18.90
2009,07,05,07,41,18.90
2009,07,05,07,42,18.90
2009,07,05,07,43,19.00
2009,07,05,07,44,19.00
2009,07,05,07,45,19.10
2009,07,05,07,46,19.10
2009,07,05,07,47,19.10
2009,07,05,07,48,19.20
2009,07,05,07,49,19.20
2009,07,05,07,50,19.20
2009,07,05,07,51,19.30
2009,07,05,07,52,19.30
2009,07,05,07,53,19.30
2009,07,05,07,54,19.40
2009,07,05,07,55,19.40
2009,07,05,07,56,19.40
2009,07,05,07,57,19.40
2009,07,05,07,58,19.40
2009,07,05,07,59,19.40
2009,07,05,08,00,19.50
2009,07,05,08,01,19.50
2009,07,05,08,02,19.50
2009,07,05,08,03,19.40
2009,07,05,08,04,19.40
2009,07,05,08,05,19.50
2009,07,05,08,06,19.50
2009,07,05,08,07,19.50
2009,07,05,08,08,19.60
2009,07,05,08,09,19.60
2009,07,05,08,10,19.70
2009,07,05,08,11,19.70
2009,07,05,08,12,19.70
2009,07,05,08,13,19.80
2009,07,05,08,14,19.80
2009,07,05,08,15,19.90
2009,07,05,08,16,19.90
2009,07,05,08,17,19.90
2009,07,05,08,18,19.90
2009,07,05,08,19,19.90
2009,07,05,08,20,19.80
2009,07,05,08,21,19.80
2009,07,05,08,22,19.80
2009,07,05,08,23,19.80
2009,07,05,08,24,19.80
2009,07,05,08,25,19.90
2009,07,05,08,26,19.90
2009,07,05,08,27,20.00
2009,07,05,08,28,20.00
2009,07,05,08,29,20.10
2009,07,05,08,30,20.20
2009,07,05,08,31,20.20
2009,07,05,08,32,20.20
2009,07,05,08,33,20.20
2009,07,05,08,34,20.30
2009,07,05,08,35,20.30
2009,07,05,08,36,20.30
2009,07,05,08,37,20.40
2009,07,05,08,38,20.40
2009,07,05,08,39,20.50
2009,07,05,08,40,20.50
2009,07,05,08,41,20.50
2009,07,05,08,42,20.50
2009,07,05,08,43,20.40
2009,07,05,08,44,20.40
2009,07,05,08,45,20.40
2009,07,05,08,46,20.40
2009,07,05,08,47,20.40
2009,07,05,08,48,20.40
2009,07,05,08,49,20.40
2009,07,05,08,50,20.40
2009,07,05,08,51,20.30
2009,07,05,08,52,20.30
2009,07,05,08,53,20.30
2009,07,05,08,54,20.20
2009,07,05,08,55,20.10
2009,07,05,08,56,20.00
2009,07,05,08,57,20.00
2009,07,05,08,58,19.90
2009,07,05,08,59,19.90
2009,07,05,09,00,19.90
2009,07,05,09,01,19.90
2009,07,05,09,02,19.90
2009,07,05,09,03,19.80
2009,07,05,09,04,19.80
2009,07,05,09,05,19.80
2009,07,05,09,06,19.70
2009,07,05,09,07,19.70
2009,07,05,09,08,19.70
2009,07,05,09,09,19.70
2009,07,05,09,10,19.70
2009,07,05,09,11,19.60
2009,07,05,09,12,19.60
2009,07,05,09,13,19.60
2009,07,05,09,14,19.50
2009,07,05,09,15,19.50
2009,07,05,09,16,19.40
2009,07,05,09,17,19.40
2009,07,05,09,18,19.40
2009,07,05,09,19,19.40
2009,07,05,09,20,19.50
2009,07,05,09,21,19.60
2009,07,05,09,22,19.60
2009,07,05,09,23,19.70
2009,07,05,09,24,19.80
2009,07,05,09,25,19.80
2009,07,05,09,26,19.90
2009,07,05,09,27,20.00
2009,07,05,09,28,20.00
2009,07,05,09,29,20.10
2009,07,05,09,30,20.20
2009,07,05,09,31,20.20
2009,07,05,09,32,20.30
2009,07,05,09,33,20.30
2009,07,05,09,34,20.30
2009,07,05,09,35,20.20
2009,07,05,09,36,20.20
2009,07,05,09,37,20.20
2009,07,05,09,38,20.10
2009,07,05,09,39,20.10
2009,07,05,09,40,20.10
2009,07,05,09,41,20.10
2009,07,05,09,42,20.00
2009,07,05,09,43,20.00
2009,07,05,09,44,20.00
2009,07,05,09,45,19.90
2009,07,05,09,46,19.90
2009,07,05,09,47,19.90
2009,07,05,09,48,19.90
2009,07,05,09,49,19.90
2009,07,05,09,50,19.90
2009,07,05,09,51,19.90
2009,07,05,09,52,19.90
2009,07,05,09,53,19.90
2009,07,05,09,54,19.90
2009,07,05,09,55,19.80
2009,07,05,09,56,19.80
2009,07,05,09,57,19.80
2009,07,05,09,58,19.70
2009,07,05,09,59,19.70
2009,07,05,10,00,19.60
2009,07,05,10,01,19.60
2009,07,05,10,02,19.50
2009,07,05,10,03,19.50
2009,07,05,10,04,19.40
2009,07,05,10,05,19.40
2009,07,05,10,06,19.40
2009,07,05,10,07,19.50
2009,07,05,10,08,19.50
2009,07,05,10,09,19.60
2009,07,05,10,10,19.60
2009,07,05,10,11,19.60
2009,07,05,10,12,19.50
2009,07,05,10,13,19.60
2009,07,05,10,14,19.60
2009,07,05,10,15,19.60
2009,07,05,10,16,19.60
2009,07,05,10,17,19.60
2009,07,05,10,18,19.60
2009,07,05,10,19,19.60
2009,07,05,10,20,19.60
2009,07,05,10,21,19.60
2009,07,05,10,22,19.60
2009,07,05,10,23,19.60
2009,07,05,10,24,19.70
2009,07,05,10,25,19.70
2009,07,05,10,26,19.80
2009,07,05,10,27,19.90
2009,07,05,10,28,20.00
2009,07,05,10,29,20.00
2009,07,05,10,30,20.10
2009,07,05,10,31,20.20
2009,07,05,10,32,20.20
2009,07,05,10,33,20.20
2009,07,05,10,34,20.20
2009,07,05,10,35,20.30
2009,07,05,10,36,20.30
2009,07,05,10,37,20.30
2009,07,05,10,38,20.30
2009,07,05,10,39,20.30
2009,07,05,10,40,20.20
2009,07,05,10,41,20.20
2009,07,05,10,42,20.20
2009,07,05,10,43,20.20
2009,07,05,10,44,20.20
2009,07,05,10,45,20.20
2009,07,05,10,46,20.20
2009,07,05,10,47,20.20
2009,07,05,10,48,20.20
2009,07,05,10,49,20.30
2009,07,05,10,50,20.30
2009,07,05,10,51,20.30
2009,07,05,10,52,20.30
2009,07,05,10,53,20.30
2009,07,05,10,54,20.30
2009,07,05,10,55,20.30
2009,07,05,10,56,20.30
2009,07,05,10,57,20.30
2009,07,05,10,58,20.30
2009,07,05,10,59,20.30
2009,07,05,11,00,20.40
2009,07,05,11,01,20.50
2009,07,05,11,02,20.60
2009,07,05,11,03,20.70
2009,07,05,11,04,20.70
2009,07,05,11,05,20.70
2009,07,05,11,06,20.70
2009,07,05,11,07,20.70
2009,07,05,11,08,20.70
2009,07,05,11,09,20.70
2009,07,05,11,10,20.70
2009,07,05,11,11,20.70
2009,07,05,11,12,20.70
2009,07,05,11,13,20.70
2009,07,05,11,14,20.70
2009,07,05,11,15,20.80
2009,07,05,11,16,20.80
2009,07,05,11,17,20.80
2009,07,05,11,18,20.70
2009,07,05,11,19,20.70
2009,07,05,11,20,20.70
2009,07,05,11,21,20.70
2009,07,05,11,22,20.70
2009,07,05,11,23,20.70
2009,07,05,11,24,20.80
2009,07,05,11,25,20.70
2009,07,05,11,26,20.70
2009,07,05,11,27,20.70
2009,07,05,11,28,20.70
2009,07,05,11,29,20.70
2009,07,05,11,30,20.80
2009,07,05,11,31,20.80
2009,07,05,11,32,20.80
2009,07,05,11,33,20.90
2009,07,05,11,34,21.00
2009,07,05,11,35,21.10
2009,07,05,11,36,21.10
2009,07,05,11,37,21.10
2009,07,05,11,38,21.00
2009,07,05,11,39,21.00
2009,07,05,11,40,20.90
2009,07,05,11,41,20.80
2009,07,05,11,42,20.90
2009,07,05,11,43,20.80
2009,07,05,11,44,20.90
2009,07,05,11,45,20.90
2009,07,05,11,46,20.90
2009,07,05,11,47,20.80
2009,07,05,11,48,20.80
2009,07,05,11,49,20.80
2009,07,05,11,50,20.80
2009,07,05,11,51,20.80
2009,07,05,11,52,20.90
2009,07,05,11,53,21.00
2009,07,05,11,54,21.00
2009,07,05,11,55,21.10
2009,07,05,11,56,21.30
2009,07,05,11,57,21.40
2009,07,05,11,58,21.40
2009,07,05,11,59,21.40
2009,07,05,12,00,21.30
2009,07,05,12,01,21.30
2009,07,05,12,02,21.20
2009,07,05,12,03,21.20
2009,07,05,12,04,21.20
2009,07,05,12,05,21.20
2009,07,05,12,06,21.10
2009,07,05,12,07,21.10
2009,07,05,12,08,21.10
2009,07,05,12,09,21.20
2009,07,05,12,10,21.30
2009,07,05,12,11,21.40
2009,07,05,12,12,21.40
2009,07,05,12,13,21.50
2009,07,05,12,14,21.50
2009,07,05,12,15,21.60
2009,07,05,12,16,21.60
2009,07,05,12,17,21.70
2009,07,05,12,18,21.60
2009,07,05,12,19,21.50
2009,07,05,12,20,21.50
2009,07,05,12,21,21.30
2009,07,05,12,22,21.20
2009,07,05,12,23,21.00
2009,07,05,12,24,20.90
2009,07,05,12,25,20.90
2009,07,05,12,26,20.90
2009,07,05,12,27,20.90
2009,07,05,12,28,20.90
2009,07,05,12,29,21.00
2009,07,05,12,30,21.10
2009,07,05,12,31,21.20
2009,07,05,12,32,21.30
2009,07,05,12,33,21.40
2009,07,05,12,34,21.50
2009,07,05,12,35,21.60
2009,07,05,12,36,21.70
2009,07,05,12,37,21.70
2009,07,05,12,38,21.60
2009,07,05,12,39,21.50
2009,07,05,12,40,21.40
2009,07,05,12,41,21.40
2009,07,05,12,42,21.40
2009,07,05,12,43,21.30
2009,07,05,12,44,21.30
2009,07,05,12,45,21.20
2009,07,05,12,46,21.20
2009,07,05,12,47,21.20
2009,07,05,12,48,21.10
2009,07,05,12,49,21.10
2009,07,05,12,50,21.20
2009,07,05,12,51,21.20
2009,07,05,12,52,21.20
2009,07,05,12,53,21.30
2009,07,05,12,54,21.30
2009,07,05,12,55,21.30
2009,07,05,12,56,21.40
2009,07,05,12,57,21.40
2009,07,05,12,58,21.40
2009,07,05,12,59,21.40
2009,07,05,13,00,21.40
2009,07,05,13,01,21.50
2009,07,05,13,02,21.50
2009,07,05,13,03,21.50
2009,07,05,13,04,21.60
2009,07,05,13,05,21.60
2009,07,05,13,06,21.50
2009,07,05,13,07,21.40
2009,07,05,13,08,21.30
2009,07,05,13,09,21.20
2009,07,05,13,10,21.20
2009,07,05,13,11,21.10
2009,07,05,13,12,21.10
2009,07,05,13,13,21.10
2009,07,05,13,14,21.10
2009,07,05,13,15,21.20
2009,07,05,13,16,21.20
2009,07,05,13,17,21.20
2009,07,05,13,18,21.20
2009,07,05,13,19,21.20
2009,07,05,13,20,21.20
2009,07,05,13,21,21.20
2009,07,05,13,22,21.20
2009,07,05,13,23,21.20
2009,07,05,13,24,21.20
2009,07,05,13,25,21.20
2009,07,05,13,26,21.20
2009,07,05,13,27,21.10
2009,07,05,13,28,21.10
2009,07,05,13,29,21.10
2009,07,05,13,30,21.10
2009,07,05,13,31,21.20
2009,07,05,13,32,21.30
2009,07,05,13,33,21.30
2009,07,05,13,34,21.30
2009,07,05,13,35,21.30
2009,07,05,13,36,21.40
2009,07,05,13,37,21.40
2009,07,05,13,38,21.50
2009,07,05,13,39,21.50
2009,07,05,13,40,21.70
2009,07,05,13,41,21.80
2009,07,05,13,42,21.80
2009,07,05,13,43,21.90
2009,07,05,13,44,21.90
2009,07,05,13,45,22.00
2009,07,05,13,46,22.00
2009,07,05,13,47,22.10
2009,07,05,13,48,22.20
2009,07,05,13,49,22.30
2009,07,05,13,50,22.40
2009,07,05,13,51,22.50
2009,07,05,13,52,22.60
2009,07,05,13,53,22.60
2009,07,05,13,54,22.60
2009,07,05,13,55,22.60
2009,07,05,13,56,22.60
2009,07,05,13,57,22.50
2009,07,05,13,58,22.50
2009,07,05,13,59,22.50
2009,07,05,14,00,22.50
2009,07,05,14,01,22.50
2009,07,05,14,02,22.50
2009,07,05,14,03,22.50
2009,07,05,14,04,22.50
2009,07,05,14,05,22.60
2009,07,05,14,06,22.60
2009,07,05,14,07,22.70
2009,07,05,14,08,22.80
2009,07,05,14,09,22.80
2009,07,05,14,10,22.80
2009,07,05,14,11,22.80
2009,07,05,14,12,22.70
2009,07,05,14,13,22.70
2009,07,05,14,14,22.70
2009,07,05,14,15,22.60
2009,07,05,14,16,22.60
2009,07,05,14,17,22.60
2009,07,05,14,18,22.60
2009,07,05,14,19,22.50
2009,07,05,14,20,22.40
2009,07,05,14,21,22.50
2009,07,05,14,22,22.50
2009,07,05,14,23,22.50
2009,07,05,14,24,22.50
2009,07,05,14,25,22.50
2009,07,05,14,26,22.60
2009,07,05,14,27,22.60
2009,07,05,14,28,22.60
2009,07,05,14,29,22.70
2009,07,05,14,30,22.70
2009,07,05,14,31,22.80
2009,07,05,14,32,22.80
2009,07,05,14,33,22.80
2009,07,05,14,34,22.70
2009,07,05,14,35,22.60
2009,07,05,14,36,22.50
2009,07,05,14,37,22.50
2009,07,05,14,38,22.50
2009,07,05,14,39,22.50
2009,07,05,14,40,22.50
2009,07,05,14,41,22.60
2009,07,05,14,42,22.60
2009,07,05,14,43,22.70
2009,07,05,14,44,22.70
2009,07,05,14,45,22.60
2009,07,05,14,46,22.50
2009,07,05,14,47,22.30
2009,07,05,14,48,22.30
2009,07,05,14,49,22.20
2009,07,05,14,50,22.20
2009,07,05,14,51,22.20
2009,07,05,14,52,22.30
2009,07,05,14,53,22.40
2009,07,05,14,54,22.40
2009,07,05,14,55,22.50
2009,07,05,14,56,22.50
2009,07,05,14,57,22.60
2009,07,05,14,58,22.60
2009,07,05,14,59,22.60
2009,07,05,15,00,22.70
2009,07,05,15,01,22.70
2009,07,05,15,02,22.70
2009,07,05,15,03,22.70
2009,07,05,15,04,22.80
2009,07,05,15,05,22.90
2009,07,05,15,06,23.00
2009,07,05,15,07,23.10
2009,07,05,15,08,23.20
2009,07,05,15,09,23.40
2009,07,05,15,10,23.50
2009,07,05,15,11,23.50
2009,07,05,15,12,23.50
2009,07,05,15,13,23.50
2009,07,05,15,14,23.50
2009,07,05,15,15,23.60
2009,07,05,15,16,23.60
2009,07,05,15,17,23.70
2009,07,05,15,18,23.80
2009,07,05,15,19,23.80
2009,07,05,15,20,23.80
2009,07,05,15,21,23.80
2009,07,05,15,22,23.80
2009,07,05,15,23,23.70
2009,07,05,15,24,23.60
2009,07,05,15,25,23.70
2009,07,05,15,26,23.80
2009,07,05,15,27,23.90
2009,07,05,15,28,23.80
2009,07,05,15,29,23.90
2009,07,05,15,30,23.80
2009,07,05,15,31,23.80
2009,07,05,15,32,23.80
2009,07,05,15,33,23.80
2009,07,05,15,34,23.80
2009,07,05,15,35,23.80
2009,07,05,15,36,23.80
2009,07,05,15,37,23.70
2009,07,05,15,38,23.60
2009,07,05,15,39,23.60
2009,07,05,15,40,23.60
2009,07,05,15,41,23.60
2009,07,05,15,42,23.60
2009,07,05,15,43,23.60
2009,07,05,15,44,23.60
2009,07,05,15,45,23.60
2009,07,05,15,46,23.50
2009,07,05,15,47,23.40
2009,07,05,15,48,23.40
2009,07,05,15,49,23.40
2009,07,05,15,50,23.40
2009,07,05,15,51,23.40
2009,07,05,15,52,23.50
2009,07,05,15,53,23.50
2009,07,05,15,54,23.50
2009,07,05,15,55,23.60
2009,07,05,15,56,23.60
2009,07,05,15,57,23.70
2009,07,05,15,58,23.80
2009,07,05,15,59,23.80
2009,07,05,16,00,23.80
2009,07,05,16,01,23.80
2009,07,05,16,02,23.80
2009,07,05,16,03,23.90
2009,07,05,16,04,24.00
2009,07,05,16,05,24.00
2009,07,05,16,06,24.10
2009,07,05,16,07,24.10
2009,07,05,16,08,24.10
2009,07,05,16,09,24.00
2009,07,05,16,10,24.00
2009,07,05,16,11,23.90
2009,07,05,16,12,23.90
2009,07,05,16,13,23.90
2009,07,05,16,14,23.80
2009,07,05,16,15,23.70
2009,07,05,16,16,23.70
2009,07,05,16,17,23.60
2009,07,05,16,18,23.60
2009,07,05,16,19,23.60
2009,07,05,16,20,23.70
2009,07,05,16,21,23.80
2009,07,05,16,22,23.70
2009,07,05,16,23,23.60
2009,07,05,16,24,23.50
2009,07,05,16,25,23.40
2009,07,05,16,26,23.30
2009,07,05,16,27,23.30
2009,07,05,16,28,23.20
2009,07,05,16,29,23.10
2009,07,05,16,30,23.10
2009,07,05,16,31,23.00
2009,07,05,16,32,23.00
2009,07,05,16,33,23.00
2009,07,05,16,34,23.10
2009,07,05,16,35,23.10
2009,07,05,16,36,23.00
2009,07,05,16,37,22.90
2009,07,05,16,38,22.70
2009,07,05,16,39,22.60
2009,07,05,16,40,22.50
2009,07,05,16,41,22.40
2009,07,05,16,42,22.30
2009,07,05,16,43,22.30
2009,07,05,16,44,22.30
2009,07,05,16,45,22.40
2009,07,05,16,46,22.50
2009,07,05,16,47,22.50
2009,07,05,16,48,22.60
2009,07,05,16,49,22.70
2009,07,05,16,50,22.70
2009,07,05,16,51,22.80
2009,07,05,16,52,22.90
2009,07,05,16,53,22.90
2009,07,05,16,54,23.00
2009,07,05,16,55,23.10
2009,07,05,16,56,23.10
2009,07,05,16,57,23.10
2009,07,05,16,58,23.10
2009,07,05,16,59,23.10
2009,07,05,17,00,23.10
2009,07,05,17,01,23.20
2009,07,05,17,02,23.10
2009,07,05,17,03,23.20
2009,07,05,17,04,23.20
2009,07,05,17,05,23.30
2009,07,05,17,06,23.20
2009,07,05,17,07,23.20
2009,07,05,17,08,23.20
2009,07,05,17,09,23.20
2009,07,05,17,10,23.20
2009,07,05,17,11,23.20
2009,07,05,17,12,23.30
2009,07,05,17,13,23.30
2009,07,05,17,14,23.30
2009,07,05,17,15,23.40
2009,07,05,17,16,23.40
2009,07,05,17,17,23.50
2009,07,05,17,18,23.50
2009,07,05,17,19,23.60